Terminal Aerodrome Forecast
Issued by NWS

Home | Current Version | Previous Version | Text Only | Print | Product List | Glossary On
Versions: 1 2 3 4 5 6 7 8 9 10 11 12 13 14 15 16 17 18 19 20 21
000
FTUS41 KGYX 061720
TAFLEB
TAF
KLEB 061720Z 0618/0718 21006KT P6SM FEW050 SCT250
     FM070600 00000KT 4SM BR SCT250
     FM071200 19005KT 6SM HZ OVC025
     FM071400 20008KT 4SM -SHRA OVC015=

USA.gov is the U.S. government's official web portal to all federal, state and local government web resources and services.